Location: Belmont
(43.6882°N, 0.2400°E)
Time: 15:33:09
(UTC+00:00)

Daily predictions for brighter satellites

Satellite Brightness Start Highest point End
(mag) Time Altitude Azimuth Time Altitude Azimuth Time Altitude Azimuth
Cosmos 1844 Rocket 2.7 17:31:47 10° SSW 17:37:26 78° ESE 17:43:05 10° NNE
Unknown 4.5 17:35:10 10° W 17:39:09 45° NNW 17:43:10 10° NE
Cosmos 1606 Rocket 3.5 17:38:40 10° S 17:43:00 64° E 17:47:20 10° NNE
Unknown 3.6 17:42:47 10° NW 17:45:10 29° NNE 17:47:34 10° E
Envisat 3.0 17:42:27 10° SSE 17:47:26 61° ENE 17:52:28 10° N
Meteor 2-12 Rocket 4.5 17:41:40 10° N 17:47:52 78° E 17:54:00 10° SSE
Meteor 1-16 Rocket 4.4 17:42:45 10° SSE 17:48:06 48° E 17:53:18 10° NNE
BREEZE-M DEB (TANK) 4.0 17:42:47 10° SW 17:48:38 33° SSE 17:51:13 10° E
Cosmos 1758 Rocket 3.8 17:48:32 10° N 17:53:00 78° W 17:57:28 10° S
Cosmos 1908 4.3 17:50:01 10° SE 17:53:10 24° E 17:56:20 10° NE
Lacrosse 5 rocket 1.4 17:54:36 10° NW 17:58:22 74° SW 18:02:20 10° SE
Cosmos 1356 3.9 17:55:14 10° SSE 17:58:24 36° E 18:01:35 10° NNE
Cosmos 2278 Rocket 3.0 17:54:12 10° SSE 17:58:59 29° ESE 18:03:46 10° NE
ASTEX 1 3.5 17:54:43 10° NNE 17:59:37 59° E 18:04:30 10° S
Cosmos 1939 Rocket 4.1 17:57:02 10° ESE 18:00:05 21° ENE 18:03:11 10° NNE
Cosmos 1844 3.8 17:57:46 10° SSW 18:03:29 84° WNW 18:09:18 10° NNE
ATLAS 5 CENTAUR R/B 3.0 18:00:21 10° WSW 18:04:20 36° NW 18:08:47 10° NNE
SKYMED 2 3.5 18:05:05 10° NNE 18:09:28 79° ESE 18:13:47 10° S
Cosmos 1328 3.9 18:06:21 10° N 18:10:15 52° ENE 18:14:07 10° SSE
YAOGAN 1 2.6 18:07:52 10° SSE 18:12:06 58° ENE 18:16:22 10° N
Cosmos 482 Debris 4.2 18:08:09 10° WNW 18:13:28 80° NNE 18:15:52 17° ESE
Cosmos 292 Rocket 3.7 18:14:00 10° S 18:18:42 68° ESE 18:23:25 10° NNE
CSL-04 Rocket 3.7 18:16:47 10° SSE 18:22:19 78° ENE 18:27:50 10° NNW
CZ-4 R/B 1.5 18:18:41 10° S 18:22:50 82° WSW 18:27:04 10° NNW
USA 238 DEB 4.3 18:17:36 10° S 18:23:25 33° ESE 18:28:53 12° NE
USA 238 4.3 18:17:43 10° S 18:23:32 33° ESE 18:28:55 12° NE
Cosmos 1726 Rocket 4.3 18:20:09 10° SSW 18:24:28 56° W 18:28:48 10° N
Shenzhou-11 Module 1.7 18:26:12 10° W 18:28:58 75° S 18:29:46 41° ESE
Cosmos 1726 2.2 18:26:10 10° SSW 18:29:49 78° W 18:33:29 10° N
Cosmos 2228 4.2 18:25:48 10° SSW 18:30:00 46° WNW 18:34:13 10° N
Ariane Rocket 3.3 18:25:17 10° SE 18:30:06 44° ENE 18:34:57 10° N
NOAA 11 4.3 18:24:56 10° SSE 18:30:13 54° ENE 18:35:31 10° N
Lacrosse 5 3.0 18:26:09 10° NW 18:30:35 29° NNE 18:32:48 21° ENE
Cosmos 1242 Rocket 3.0 18:30:23 10° NNW 18:34:03 65° W 18:37:41 10° S
CZ-2D R/B 3.2 18:34:06 10° SSE 18:37:53 62° ENE 18:41:43 10° N
Cosmos 2058 Rocket 3.6 18:35:31 10° SSW 18:39:48 59° W 18:44:08 10° N
Cosmos 921 Rocket 4.2 18:36:01 10° SW 18:40:21 45° WNW 18:44:40 10° N
Cosmos 1833 Rocket 2.9 18:35:41 10° NNW 18:41:08 49° ENE 18:44:18 24° ESE
Cosmos 1339 Rocket 4.3 18:39:34 10° S 18:45:38 82° E 18:51:47 10° N
SL-4 R/B 4.0 18:45:01 10° W 18:48:00 22° SW 18:50:50 10° S
NOSS 3-2 (A) 3.8 18:43:58 10° S 18:49:09 38° ESE 18:51:20 29° ENE
HJ-1C 3.8 18:51:33 43° NE 18:51:33 43° NE 18:54:15 10° N
Cosmos 1777 Rocket 3.9 18:46:38 10° NNW 18:51:53 88° ENE 18:57:05 10° SSE
Cosmos 1459 Rocket 4.4 18:51:19 10° N 18:57:08 40° ENE 18:58:58 33° ESE
COSMO-SKYMED 1 4.4 18:53:31 10° N 18:57:24 32° WNW 19:01:16 10° SW
Cosmos 1703 4.3 18:53:53 10° NNW 18:57:40 46° W 19:01:25 10° SSW
Cosmos 2058 4.3 18:55:59 10° N 18:58:09 25° NNE 18:58:09 25° NNE
Cosmos 1605 Rocket 4.1 18:53:48 10° N 19:00:00 76° W 19:06:05 10° S
OAO 3 Rocket 4.5 18:55:48 10° WSW 19:00:04 30° S 19:01:26 26° SSE
Gbstr 26 Del rocket 4.2 18:54:49 10° WNW 19:01:00 63° NNE 19:04:05 35° E
Cosmos 2082 Rocket 2.4 18:57:41 10° NNW 19:03:17 51° ENE 19:04:38 42° ESE
Abrixas rocket 2.6 19:00:26 10° WSW 19:02:52 53° SW 19:02:52 53° SW
SJ 16-02 3.7 19:02:16 10° NNE 19:02:24 10° NNE 19:02:24 10° NNE
H-2A R/B 3.0 19:06:53 32° NE 19:06:53 32° NE 19:10:53 10° N
Cosmos 1727 Rocket 3.8 19:00:55 10° S 19:07:05 83° E 19:13:17 10° N
COSMOS 2406 4.0 19:02:14 10° NW 19:07:48 52° WSW 19:13:19 10° S
Unknown 4.0 19:08:22 10° NW 19:10:36 42° NW 19:10:36 42° NW
NOSS 3-2 (C) 4.2 19:07:06 10° S 19:10:26 29° SSE 19:10:26 29° SSE
Cosmos 1802 Rocket 4.2 19:10:59 10° N 19:17:13 48° ENE 19:17:48 47° E
Cosmos 2173 Rocket 3.9 19:14:19 10° N 19:20:33 61° E 19:22:02 48° SE
SJ-11-01 4.1 19:22:27 72° NE 19:22:27 72° NE 19:26:59 10° N
MOS 1 4.2 19:27:18 32° SSE 19:30:05 85° WSW 19:35:47 10° NNW
In-Cosmos 22 Rocket 4.2 19:25:49 10° N 19:30:27 57° NE 19:30:27 57° NE
CZ-2C R/B 4.4 19:37:02 31° NNE 19:37:02 31° NNE 19:40:27 10° N
Cosmos 1461 3.5 19:31:19 10° NW 19:34:29 51° NW 19:34:29 51° NW
ADEOS Rocket 3.4 19:29:31 10° NNE 19:37:11 62° E 19:44:17 10° S
Cosmos 1000 Rocket 4.3 19:33:01 10° S 19:39:11 79° E 19:45:26 10° N
Cosmos 967 Rocket 4.4 19:33:01 10° NNW 19:39:31 84° ENE 19:40:25 68° SE
Cosmos 2100 Rocket 3.9 19:35:13 10° N 19:41:27 87° W 19:43:19 48° S
Cosmos 2278 Rocket 3.2 19:37:25 10° SW 19:42:49 45° WNW 19:48:16 10° NNE
ATLAS 3B R/B 4.2 19:43:32 10° S 19:45:35 20° S 19:45:35 20° S
Cosmos 2016 Rocket 4.1 19:58:00 10° N 20:03:18 66° N 20:03:18 66° N
Lacrosse 5 3.2 20:08:56 10° NW 20:12:01 37° WNW 20:12:01 37° WNW
USA 238 DEB 4.2 20:07:28 10° SW 20:14:02 56° NW 20:16:24 39° N
USA 238 4.2 20:07:34 10° SW 20:14:08 56° NW 20:16:26 39° N
ARGOS 4.3 20:19:56 39° NNW 20:19:56 39° NNW 20:23:22 10° NNW
Cosmos 2061 Rocket 4.4 20:13:59 10° NNW 20:19:19 59° NW 20:19:19 59° NW
Cosmos 1833 Rocket 4.5 20:20:12 10° NW 20:24:44 26° WSW 20:26:03 23° SW
H-2A R/B 4.0 20:47:31 26° NW 20:47:31 26° NW 20:50:22 10° NNW
Cosmos 2082 Rocket 4.1 20:42:28 10° NW 20:46:31 25° W 20:46:31 25° W
